ECMWFFLT1_925_spd_132.txt.gz
Wind_Speed
11 12 13 13 13 15 15 16 18 17 17 18 18 19 18 17 17 17 18 19 19 19 19 19 19 19 20 19 19 18 17 17 16 16 15 14 13 12 12 12 12 12 11 10 10 9 8 8 9 9 9 9 9 9 9 8 7 7 7 7 6 6 6
7 9 11 13 14 14 16 18 18 17 18 19 19 19 18 18 18 19 18 20 21 20 19 19 19 19 19 19 19 18 18 18 17 16 16 15 14 13 13 12 12 12 12 11 9 9 9 8 9 9 9 10 10 10 10 9 8 8 7 7 7 7 6
6 6 6 10 12 13 15 17 18 18 19 19 19 19 19 19 20 20 20 20 21 21 20 19 20 20 19 19 18 19 19 19 18 18 17 16 15 15 14 13 13 13 13 12 11 10 9 9 9 9 10 10 10 10 10 10 9 9 8 8 8 8 7
6 5 1 4 8 10 12 15 16 18 18 19 19 19 20 21 21 20 20 21 21 22 22 22 21 20 19 19 18 18 19 20 19 18 18 17 16 15 15 14 14 14 13 13 12 11 10 9 9 10 10 9 9 10 10 10 10 9 9 9 9 9 8
3 6 4 0 3 5 8 11 13 14 16 16 17 18 19 21 21 20 20 20 20 22 24 23 21 20 19 19 18 18 18 19 19 18 18 17 16 15 15 15 15 15 14 13 13 12 11 10 10 10 10 10 10 10 11 11 11 10 10 10 10 10 10
3 3 4 3 1 3 4 6 9 11 13 13 14 16 17 18 18 19 18 18 19 20 21 22 20 20 20 20 19 18 17 18 18 18 18 17 16 16 16 16 15 15 14 14 13 13 13 12 12 12 11 11 11 11 12 12 11 11 11 11 11 11 10
6 3 2 3 2 1 2 3 6 9 11 12 13 13 14 15 16 16 16 16 17 18 19 21 21 21 20 20 19 19 18 18 18 18 18 17 17 17 16 16 15 15 14 14 14 14 13 13 13 13 12 12 11 12 12 12 11 11 11 11 11 11 11
6 6 4 0 1 1 1 3 5 7 8 10 11 12 14 14 14 15 16 16 17 18 19 20 20 20 19 18 18 19 18 18 17 17 18 18 18 18 18 17 16 15 15 14 14 14 14 14 14 14 14 13 13 12 12 12 11 11 11 11 11 12 12
5 6 5 2 1 1 1 1 4 6 7 8 10 11 13 14 13 14 15 15 16 17 18 18 18 18 17 17 17 18 18 17 17 17 18 18 19 20 19 18 17 16 16 15 15 15 15 14 14 14 14 15 14 13 13 13 12 12 12 12 12 12 12
6 6 5 3 2 2 2 1 1 4 4 7 9 9 9 10 11 12 13 14 15 16 17 17 17 17 17 16 16 17 17 17 17 17 18 18 19 20 20 19 18 17 17 17 16 15 15 15 15 14 14 15 15 15 15 14 14 14 13 13 13 14 13
6 6 5 4 3 4 4 4 1 2 4 2 4 6 7 7 8 10 11 13 14 15 15 15 16 16 16 16 16 16 17 17 17 17 18 18 18 19 20 20 19 18 18 17 17 16 16 15 15 15 15 15 16 16 16 15 15 15 15 15 14 14 14
5 5 6 6 4 3 3 4 4 4 6 6 2 3 4 4 5 7 11 13 14 14 14 15 16 17 17 17 16 16 17 17 17 17 17 18 18 19 19 19 19 19 18 18 18 18 17 16 16 16 16 17 16 16 16 16 15 15 15 15 15 15 15
6 6 6 7 6 4 3 4 6 7 6 6 5 3 2 3 2 3 6 10 12 13 14 15 17 18 18 17 17 17 18 19 19 18 18 17 17 17 19 19 19 20 19 18 18 18 18 17 17 16 16 17 17 17 16 16 15 15 15 15 15 15 15
8 8 8 9 9 9 8 7 8 9 7 6 6 5 3 2 3 4 6 8 9 11 14 15 16 18 18 18 19 19 20 19 18 18 17 15 14 15 16 18 18 19 19 18 18 19 18 18 17 17 16 17 17 17 16 16 15 15 15 15 15 15 15
11 11 11 11 11 12 11 10 10 10 10 9 10 9 4 2 6 7 8 9 8 11 15 16 15 16 17 18 19 19 19 17 16 16 16 16 18 18 18 19 19 18 18 18 18 18 18 18 17 17 16 16 16 16 16 16 16 15 15 15 15 15 15
11 11 11 11 11 11 11 11 11 11 11 11 11 12 10 6 3 4 6 7 8 10 13 15 16 15 16 18 20 19 18 16 16 17 17 18 21 21 19 19 20 19 17 17 17 17 17 18 17 17 17 16 16 16 16 16 16 15 16 17 15 14 14
11 11 11 12 11 12 11 12 12 12 12 12 12 11 12 11 8 4 4 5 7 10 11 13 15 13 13 16 18 17 16 16 17 18 17 17 18 17 17 19 20 20 18 15 16 17 17 17 18 18 17 17 16 17 17 16 15 16 18 18 16 15 14
11 10 12 12 12 13 12 12 13 13 13 13 13 13 11 9 9 8 5 4 6 8 10 12 14 13 11 12 13 14 14 14 16 17 17 17 18 18 20 21 21 21 20 18 17 18 18 18 18 18 18 17 17 17 17 16 16 18 19 18 16 15 15
11 11 12 12 12 12 12 12 14 15 15 15 14 14 12 9 8 8 7 4 4 4 6 9 11 11 11 10 11 12 13 13 14 16 18 20 20 19 21 22 20 19 19 20 19 18 17 17 18 17 17 17 17 17 17 17 16 16 16 16 16 15 14
10 11 12 11 11 12 13 14 15 15 16 15 13 13 12 10 9 7 6 5 5 5 4 5 6 7 9 10 10 11 12 13 15 16 18 19 19 18 20 22 22 20 18 19 19 18 17 16 15 15 14 13 14 14 14 13 12 13 14 15 15 14 13
10 10 10 10 10 11 13 15 16 17 16 14 13 12 12 12 11 10 9 8 9 10 10 9 9 8 7 8 11 12 12 13 14 15 17 19 18 18 19 19 20 19 16 17 18 17 15 14 13 13 13 13 12 12 13 11 8 8 12 14 14 13 12
10 10 10 10 10 11 13 14 15 16 14 12 13 13 13 13 14 14 14 14 13 13 14 16 17 16 14 12 10 11 12 14 14 14 16 18 17 18 18 17 16 15 14 15 17 16 13 11 11 12 14 14 12 12 12 11 9 10 10 12 13 15 14
9 10 11 12 12 12 12 13 14 14 14 14 15 15 15 15 17 18 18 19 18 17 16 17 17 17 17 17 15 10 6 7 9 10 12 14 15 17 18 17 15 13 11 12 13 11 9 7 7 10 11 12 11 9 9 11 13 14 14 13 12 11 12
8 10 11 11 12 13 12 12 13 13 13 15 16 17 17 17 18 19 21 21 21 20 18 18 17 15 15 18 19 17 12 8 5 1 2 5 8 12 15 16 15 12 10 11 10 9 8 8 7 8 8 8 9 8 7 8 10 11 11 10 9 7 6
7 9 11 11 11 12 12 12 12 12 13 14 15 16 17 18 18 19 21 21 21 21 21 19 17 16 16 18 22 22 19 17 14 10 7 6 4 1 5 9 12 12 8 7 7 6 6 7 7 7 7 6 7 8 7 8 9 10 10 10 10 9 6
7 8 10 10 10 11 11 11 12 13 14 14 14 14 16 17 18 18 18 17 18 20 20 18 18 20 19 19 22 25 25 23 21 19 16 13 10 7 4 0 6 9 7 6 7 5 4 5 5 3 4 4 4 4 4 4 6 7 8 8 9 9 8
8 9 10 9 9 9 10 11 12 13 13 13 13 14 14 15 16 16 15 15 16 17 16 14 16 20 21 21 22 25 25 24 23 23 22 18 14 11 9 6 4 6 4 5 6 6 5 3 3 1 0 1 1 1 2 3 3 5 7 7 8 9 8
8 9 9 9 9 9 10 11 12 12 13 13 13 13 14 14 15 15 14 15 16 14 13 13 14 16 18 20 21 21 22 21 21 20 20 18 15 13 12 10 8 6 3 3 5 7 7 5 4 3 2 1 1 1 2 3 3 3 4 5 5 6 6
8 8 9 9 9 9 10 11 11 12 12 12 12 12 13 13 14 14 14 15 14 12 12 12 12 13 14 16 17 18 19 19 18 16 15 14 12 10 10 11 10 9 6 4 6 9 12 11 9 7 5 5 4 3 2 2 2 1 1 1 1 2 2
8 8 8 9 9 10 10 10 11 11 11 12 12 12 12 12 13 13 14 14 12 11 11 11 11 12 13 13 13 15 16 18 18 16 14 12 11 10 10 11 12 12 11 10 11 13 15 14 12 10 10 9 8 7 6 6 6 5 5 4 4 4 3
8 8 9 9 9 9 9 10 11 11 11 11 11 11 12 12 12 12 12 11 10 10 11 11 12 12 13 13 12 13 13 15 17 17 16 14 13 13 12 12 12 14 15 16 15 14 15 14 12 12 12 11 10 10 9 9 8 7 7 7 6 6 5
8 8 9 10 9 9 9 10 11 12 12 12 11 11 12 11 11 11 10 9 10 10 10 10 11 12 12 12 13 13 14 14 14 15 16 15 14 15 15 14 13 12 13 15 14 13 13 13 11 11 11 11 11 10 9 8 8 7 7 8 8 7 7
8 8 9 9 9 8 9 10 11 12 13 12 11 11 11 11 11 10 9 9 9 9 9 9 10 10 11 12 12 12 14 14 14 14 15 15 14 14 16 18 17 13 12 12 12 11 12 11 11 10 9 9 9 9 8 8 8 8 8 8 9 8 8
9 9 8 8 8 8 9 10 11 11 12 12 11 11 12 11 11 10 10 10 9 9 9 9 9 10 10 10 10 11 11 12 12 13 14 16 16 15 14 14 15 15 14 13 11 10 10 10 11 11 10 9 9 8 7 7 8 9 9 9 9 9 9
8 8 8 7 7 8 8 9 10 10 11 11 11 11 12 11 11 10 10 10 9 9 8 8 8 9 9 8 9 8 8 9 10 10 11 13 16 17 16 14 13 12 13 14 12 10 9 9 9 9 9 9 9 7 6 5 6 8 10 11 11 12 11
7 7 7 7 6 7 7 8 9 10 10 9 9 10 11 11 10 10 9 9 9 9 8 7 7 7 8 8 8 8 7 7 8 9 8 8 10 12 14 15 15 13 13 13 14 13 11 11 10 10 10 9 8 8 7 6 7 9 10 12 12 13 12
7 7 6 6 5 5 6 6 7 8 9 8 9 9 9 9 9 9 9 9 9 9 8 8 7 7 7 7 8 8 7 7 7 7 7 7 7 7 8 10 12 13 13 13 13 13 13 13 13 13 13 11 10 10 10 9 10 10 11 11 12 13 13
6 6 5 5 4 4 5 5 6 7 7 7 7 7 7 7 7 8 8 8 8 8 8 7 6 6 6 7 7 7 7 6 6 5 5 5 5 4 4 5 7 9 10 11 11 12 12 13 14 14 14 13 12 11 11 11 11 11 11 11 11 12 13

ECMWFFLT1_925_spd_135.txt.gz
Wind_Speed
6 5 8 11 11 13 13 15 17 18 18 17 18 19 18 16 16 17 18 19 18 18 19 19 19 19 19 19 18 18 17 16 15 15 15 14 13 14 13 13 12 12 12 11 11 11 10 10 10 9 9 9 9 9 8 8 7 7 6 7 7 7 7
8 5 6 8 8 9 12 17 18 17 18 18 17 19 19 17 16 16 18 19 19 18 19 18 19 19 20 19 18 18 18 17 16 16 16 15 14 14 13 13 13 13 12 11 11 11 11 10 10 10 10 10 10 10 10 9 9 9 8 7 8 8 8
7 6 2 3 2 4 10 13 18 18 17 18 18 18 18 18 18 17 16 18 20 19 19 19 19 19 19 20 19 19 19 18 17 17 17 16 16 15 14 13 13 13 14 13 11 11 11 11 11 11 11 11 11 11 11 11 10 10 9 8 9 9 9
3 6 4 1 3 2 9 10 14 19 18 18 19 19 19 17 17 17 17 18 19 19 18 18 19 19 19 19 19 19 19 19 18 18 17 17 16 16 15 15 14 14 14 14 13 12 11 12 12 12 12 11 11 11 11 11 12 11 11 10 10 10 10
4 3 3 2 3 3 2 7 9 12 15 16 14 13 16 18 17 17 18 18 19 20 20 20 19 18 18 18 19 18 19 19 19 18 18 17 16 16 17 17 16 15 15 15 15 14 13 12 12 12 13 13 12 12 12 12 12 12 12 12 11 11 11
5 5 1 3 3 4 3 5 5 11 12 10 7 8 13 16 18 18 17 18 19 20 22 22 19 18 18 18 19 18 18 19 19 18 17 17 17 17 17 17 17 16 16 15 15 15 15 14 14 13 13 14 14 13 14 14 13 13 13 13 12 12 12
3 3 2 2 2 2 2 5 2 5 7 3 6 11 17 15 15 16 16 17 17 17 19 20 20 20 19 17 17 18 18 18 19 19 18 18 17 17 17 17 17 17 16 16 16 16 16 16 16 15 15 15 14 14 14 14 14 14 13 13 13 12 12
2 2 2 1 1 2 1 4 5 5 5 3 2 6 11 9 7 10 14 14 13 14 16 17 17 19 20 18 17 18 17 17 19 19 19 19 19 18 18 17 17 17 16 16 17 16 16 17 17 16 16 16 15 15 14 14 14 14 14 14 13 13 13
3 3 4 2 2 3 2 3 5 7 7 5 4 4 5 4 3 7 10 11 11 12 14 15 16 17 18 19 19 18 16 16 17 18 19 19 19 20 19 18 17 17 17 17 16 16 17 17 17 17 17 17 16 16 15 15 15 15 15 14 14 14 13
4 4 4 4 4 4 4 3 3 3 6 5 4 4 5 2 2 6 9 10 11 12 13 15 17 17 16 17 18 17 17 17 17 17 19 19 20 20 20 19 18 17 18 17 16 16 16 16 17 17 17 17 17 17 16 16 16 16 16 15 15 15 15
4 4 5 5 5 6 6 4 4 3 4 5 3 3 4 2 2 5 7 7 8 9 9 10 12 14 15 17 18 17 18 18 18 18 18 18 19 19 19 19 19 19 18 18 17 17 16 17 17 17 17 18 18 18 18 17 17 17 16 16 15 15 15
5 5 6 7 6 5 6 6 5 4 3 4 6 4 1 2 2 2 6 7 6 6 8 9 8 10 12 14 16 18 18 18 18 18 18 19 19 19 19 19 19 19 18 18 17 17 17 17 17 17 18 18 18 19 19 18 18 17 17 17 16 16 16
9 8 8 9 9 8 9 8 8 7 5 4 5 6 5 4 4 4 2 4 4 4 7 11 11 10 12 13 13 15 17 20 20 18 18 18 18 18 18 18 18 19 18 17 17 17 17 17 17 17 17 17 18 19 19 19 18 18 18 17 17 16 16
12 12 11 11 11 11 11 10 10 10 9 7 6 5 5 3 3 4 5 3 2 3 5 10 13 13 14 15 15 16 16 17 18 19 18 16 16 16 17 17 17 16 15 14 14 15 16 16 18 17 16 17 20 21 20 19 19 18 18 18 18 17 17
12 11 11 12 11 11 11 10 10 10 10 9 8 7 5 3 2 3 4 5 5 5 3 5 9 12 13 15 17 17 18 18 17 17 18 16 15 14 14 16 13 10 11 13 13 13 13 13 16 18 18 19 20 20 19 19 19 19 19 18 17 17 17
11 10 11 11 10 10 10 9 10 10 10 9 9 8 7 5 4 4 6 8 9 9 8 6 6 8 10 12 15 16 17 17 17 20 21 16 14 12 12 15 12 8 10 14 14 16 17 15 16 18 19 19 18 18 18 18 19 19 19 19 18 16 16
11 10 10 10 9 10 10 9 10 10 10 10 10 10 9 8 7 5 4 6 10 13 12 9 8 8 7 9 12 12 13 15 16 20 22 17 14 13 13 15 14 12 14 16 16 17 19 18 18 18 18 18 19 19 19 19 19 18 17 19 20 18 15
10 10 10 9 9 10 9 10 10 10 11 12 12 11 10 9 8 6 5 3 4 8 9 7 7 8 6 7 9 9 10 15 17 19 21 20 17 15 14 15 14 15 18 18 17 17 17 18 19 20 18 16 16 16 15 13 14 15 15 15 17 18 17
8 9 10 10 9 9 10 10 11 12 12 12 12 11 9 8 8 7 7 5 3 2 1 1 3 4 3 5 8 8 10 14 16 17 19 21 21 18 14 13 13 15 16 17 16 15 14 15 17 20 20 19 18 17 15 12 10 12 14 15 17 18 17
6 7 8 9 9 8 11 13 12 12 12 10 10 9 8 8 7 7 7 6 6 8 8 9 10 10 8 6 6 7 9 13 14 15 17 19 20 19 15 12 11 12 13 16 17 17 17 16 16 18 19 19 19 16 10 8 8 9 11 14 17 18 18
3 5 7 6 6 6 11 14 13 13 12 10 10 10 9 9 9 8 8 8 9 11 13 15 16 15 13 11 9 7 8 10 12 15 18 20 20 20 18 14 11 11 12 13 15 16 16 16 17 19 18 15 14 12 8 5 7 7 7 10 14 16 17
2 3 7 7 2 4 11 13 13 13 12 11 11 12 12 12 11 11 11 12 13 15 16 17 17 15 14 13 11 8 5 4 5 10 15 18 19 18 17 15 11 11 13 14 13 12 13 15 18 19 17 15 14 12 9 7 7 6 6 6 9 12 13
1 2 7 9 6 7 11 13 13 13 12 12 12 13 14 13 13 14 15 15 15 16 17 18 17 15 13 11 10 9 8 6 4 1 3 7 9 9 11 12 11 12 15 17 15 13 13 16 19 17 13 12 11 10 9 6 4 6 6 6 7 9 10
1 4 7 9 9 10 10 11 12 12 12 14 13 12 13 14 14 16 16 16 15 15 16 17 15 14 13 12 11 11 11 11 10 8 7 6 6 7 8 9 10 12 15 18 21 19 15 14 16 15 12 10 8 8 8 6 4 5 6 6 7 7 7
4 6 8 9 10 11 10 10 10 10 12 14 14 13 13 13 14 15 15 15 15 15 15 15 14 13 13 14 14 13 13 13 12 11 11 10 9 8 8 7 7 8 9 13 19 21 18 13 11 10 9 8 7 6 6 6 6 6 6 5 6 6 6
5 6 8 10 10 10 9 9 9 10 11 13 13 12 12 13 13 14 14 14 14 15 15 14 13 13 12 13 15 15 15 15 14 13 12 10 9 9 9 9 7 6 5 4 4 8 12 11 8 8 7 7 7 6 6 7 6 4 3 3 2 4 5
7 8 9 10 9 9 9 9 10 10 11 11 11 11 11 12 13 13 13 14 14 15 14 13 13 13 13 13 14 15 15 14 13 13 13 12 11 11 11 11 10 8 7 6 5 4 5 6 6 6 8 10 11 11 10 8 4 2 0 0 1 3 3
11 10 10 10 9 8 10 10 10 10 11 11 11 11 11 12 12 12 12 13 14 13 12 12 13 13 14 14 14 14 14 14 13 13 13 14 14 13 12 13 13 12 11 9 7 5 5 6 6 7 10 12 12 12 10 7 4 3 2 2 1 1 1
11 10 9 10 9 9 9 10 10 11 11 11 11 11 11 11 12 12 12 12 12 11 11 12 12 13 13 14 14 15 14 14 13 13 14 14 14 13 13 15 15 15 14 13 12 12 11 9 8 7 9 11 11 10 9 7 6 5 5 4 4 3 3
10 9 9 10 10 10 10 10 10 11 11 11 11 10 11 11 11 11 12 11 11 10 11 11 11 11 12 12 13 14 14 13 13 13 13 13 13 13 14 14 15 15 14 13 13 13 12 11 11 11 11 11 11 11 10 10 9 9 8 7 6 5 4
11 11 11 11 11 11 11 11 11 11 11 11 10 10 10 10 10 11 11 10 9 9 10 10 11 11 12 12 12 12 12 13 13 12 13 13 13 13 13 13 14 16 15 14 13 12 11 10 11 11 10 10 9 10 11 11 10 9 9 8 7 7 5
10 11 11 12 11 10 11 11 11 11 11 11 10 9 9 9 10 10 10 9 9 9 9 9 10 10 11 11 12 12 12 12 12 12 12 12 12 13 14 13 13 14 14 13 12 12 11 10 10 9 8 8 7 6 9 12 11 9 9 10 10 9 8
9 10 10 10 10 9 10 10 11 10 11 10 10 9 9 9 10 10 10 9 9 9 9 9 9 9 9 10 10 11 12 12 12 13 13 12 12 12 13 13 13 13 13 12 11 10 10 9 9 8 7 7 6 6 9 12 13 12 12 12 11 11 10
9 9 9 8 8 9 9 10 10 10 10 9 9 9 9 10 10 10 10 10 10 9 9 9 9 9 9 9 9 9 10 10 11 12 13 14 15 15 14 13 13 13 13 12 10 9 8 8 8 8 8 7 7 6 8 10 11 11 12 11 11 10 9
9 9 8 8 8 8 9 10 9 9 9 8 8 9 9 10 10 10 10 9 9 9 8 8 8 8 8 8 8 8 8 8 9 9 10 12 14 17 17 16 14 13 13 14 13 11 9 8 7 7 8 8 8 7 6 7 9 10 10 10 10 10 10
9 8 8 8 8 8 9 9 9 9 9 8 7 8 8 9 9 9 9 9 9 9 9 8 7 8 8 8 8 8 7 7 8 7 7 8 9 11 14 15 16 15 14 14 14 14 13 12 11 10 9 8 9 10 9 8 8 9 8 9 9 11 11
8 8 7 7 7 7 7 8 7 8 8 7 7 7 7 8 8 8 8 9 8 8 9 8 8 8 8 8 8 8 8 7 6 5 6 6 5 6 7 9 12 14 14 14 13 13 14 14 14 13 12 10 9 10 11 11 10 9 8 8 8 11 13
8 7 7 6 6 6 6 6 6 6 7 6 6 6 6 7 7 7 7 8 8 8 8 8 8 7 7 7 7 7 7 6 6 5 4 4 3 2 1 3 7 10 11 11 10 11 11 12 12 12 12 12 10 10 11 11 11 10 9 8 7 9 12

ECMWFFLT1_925_spd_138.txt.gz
Wind_Speed
5 4 3 3 4 5 8 6 12 14 13 14 16 19 21 21 20 18 19 21 21 21 20 20 20 20 19 18 17 16 16 16 16 16 15 14 14 15 15 15 15 15 14 14 14 13 12 13 13 12 14 14 12 11 11 10 9 7 7 8 8 7 6
2 4 3 2 3 4 7 9 10 14 15 13 15 16 18 22 23 20 19 21 21 21 21 20 20 20 19 19 17 17 17 16 16 16 16 16 15 15 15 15 15 15 15 14 15 15 14 14 14 13 13 15 14 13 13 12 11 10 9 9 8 8 8
2 5 3 2 2 3 6 9 7 8 14 18 19 17 17 23 24 21 20 22 22 21 21 20 21 20 19 19 18 18 18 16 17 17 16 16 16 16 15 16 16 15 15 15 14 15 14 15 15 14 14 13 14 14 14 13 12 12 11 10 9 9 10
3 4 3 1 1 3 5 6 7 7 7 9 11 11 14 22 25 23 22 21 21 22 21 21 20 20 20 20 19 18 19 18 17 17 17 16 17 17 16 16 16 15 15 15 14 13 14 15 16 16 16 14 14 14 15 14 13 13 13 12 12 11 11
2 0 1 1 1 2 3 4 5 6 8 4 4 4 11 17 20 20 21 22 21 21 20 20 20 19 19 19 19 18 19 19 19 18 17 17 17 17 17 16 16 16 15 16 16 15 14 14 15 17 17 16 15 14 14 15 14 14 14 14 13 12 11
5 2 3 2 1 2 3 3 4 4 5 5 5 3 5 9 7 6 9 14 19 20 20 19 18 19 19 19 19 18 18 20 20 19 18 18 18 18 18 17 16 16 16 16 16 17 16 14 14 15 16 17 16 15 15 15 15 15 15 15 14 13 12
5 1 2 3 2 2 3 5 7 7 7 6 3 2 0 2 2 2 4 7 14 18 20 20 18 17 18 18 18 18 18 19 20 19 19 18 18 18 18 18 18 18 17 17 16 17 17 17 16 15 15 16 16 16 16 17 16 15 15 16 16 15 14
6 3 4 4 4 4 5 6 8 9 10 10 4 1 2 4 5 7 5 3 9 15 13 13 16 17 18 18 17 18 17 18 19 19 20 19 19 19 19 18 19 19 18 18 18 17 17 18 18 17 16 16 16 16 17 18 18 17 16 16 17 16 14
6 5 5 5 5 5 5 8 11 9 9 11 10 5 1 5 6 7 4 0 4 8 5 5 7 11 15 15 14 15 16 16 17 18 18 19 19 19 19 19 18 19 19 18 18 19 19 18 18 19 19 18 18 17 17 17 18 18 17 16 16 16 15
4 5 6 3 1 2 2 5 10 10 8 9 10 10 6 4 2 2 0 4 1 5 3 4 7 9 9 11 10 9 9 10 13 16 18 19 20 19 19 19 18 18 19 19 18 18 19 20 19 19 20 20 19 19 18 16 16 16 17 17 16 16 16
5 6 6 3 1 1 1 4 5 5 6 7 7 9 10 8 4 1 3 1 3 3 5 7 9 9 9 12 13 9 6 9 14 13 14 15 16 17 18 18 19 18 17 18 18 18 17 19 20 19 19 20 19 19 18 17 17 16 16 17 17 17 17
6 6 8 7 5 4 3 4 5 4 3 5 6 7 9 9 8 5 6 8 6 7 6 7 11 13 9 10 16 14 11 11 14 15 14 13 14 14 14 16 18 18 19 18 17 18 17 17 19 19 19 19 18 18 18 18 18 18 17 17 17 17 17
7 7 9 9 7 6 6 6 6 6 5 5 6 6 7 8 10 9 6 7 4 2 2 2 6 10 6 6 11 13 12 14 14 13 15 16 15 13 11 16 22 19 17 18 19 19 18 18 18 18 18 17 17 17 17 17 17 18 18 18 18 18 18
9 9 9 9 8 7 7 7 7 7 8 7 5 5 5 4 4 6 6 5 5 6 6 5 3 2 2 3 6 8 9 11 13 11 12 14 15 13 11 14 20 22 20 16 16 18 18 17 16 16 17 17 17 17 17 16 16 17 18 19 19 18 18
10 9 9 9 8 7 6 6 6 7 9 9 8 6 4 3 2 2 3 3 3 5 8 7 6 5 3 3 5 5 7 10 10 11 12 12 12 13 14 14 13 15 20 22 16 13 13 13 14 14 13 15 18 18 15 13 12 13 15 17 19 18 17
10 10 9 9 8 7 7 7 7 8 8 8 8 8 7 6 5 3 2 2 4 2 4 6 6 6 4 2 4 6 8 9 11 12 13 12 11 10 12 11 9 10 15 18 16 13 10 11 14 13 8 8 13 15 15 14 13 14 14 15 18 18 18
10 9 9 8 7 7 7 8 8 8 9 9 9 9 8 8 7 6 4 2 2 3 3 5 5 4 3 3 3 5 7 7 8 10 12 12 11 10 9 9 8 8 10 13 13 16 17 14 14 14 11 8 8 11 15 19 19 19 17 14 14 15 17
9 9 9 8 8 7 7 8 8 8 9 9 9 9 8 8 8 8 7 6 4 3 3 3 3 3 3 3 2 4 5 5 5 7 9 10 10 11 11 10 10 9 9 12 12 13 16 16 14 14 14 12 9 7 10 15 16 17 17 16 15 14 14
9 9 7 6 6 6 7 8 9 9 10 9 9 10 9 9 9 10 10 9 7 6 6 6 5 3 1 2 3 6 7 7 5 5 6 6 7 9 10 10 10 10 10 13 13 13 13 14 13 12 11 10 8 5 4 7 11 14 15 15 16 16 15
7 8 7 5 5 4 6 8 9 10 11 11 11 11 11 12 12 13 12 11 11 10 10 10 10 9 7 3 2 5 6 6 5 6 5 4 4 6 7 8 10 10 10 11 12 12 13 13 14 14 11 9 10 8 5 6 8 10 10 11 13 14 15
6 6 7 6 5 5 7 9 10 11 11 11 12 14 15 14 14 15 15 15 14 13 13 13 13 12 11 10 8 5 5 6 5 4 4 4 4 5 5 7 8 9 10 11 11 11 12 13 14 14 13 11 10 7 5 7 7 8 8 8 10 11 12
6 5 6 7 5 4 7 9 9 10 11 11 13 15 18 18 17 17 18 17 16 14 14 15 15 14 14 13 12 10 9 10 9 8 7 6 5 4 4 4 5 6 8 10 11 12 13 13 13 14 16 17 13 7 5 6 7 8 8 8 9 10 9
5 4 6 8 6 4 4 6 7 8 11 13 15 15 16 18 18 19 19 18 17 15 14 14 14 14 14 13 13 14 13 12 12 12 11 9 7 6 5 5 5 5 6 7 10 12 14 16 17 16 16 17 13 8 7 8 8 8 9 9 9 9 7
5 3 4 8 8 3 2 2 4 8 12 15 16 16 15 15 16 18 18 17 15 14 13 14 14 13 13 13 14 16 16 16 15 14 14 13 11 10 9 8 8 8 8 6 7 10 12 16 20 21 20 18 15 12 9 8 8 7 8 8 8 8 7
6 4 5 9 9 3 3 7 7 10 15 17 17 15 14 13 14 15 15 14 13 13 13 13 13 13 14 15 15 16 17 17 18 17 17 16 15 14 13 12 10 11 12 11 11 12 13 13 14 16 15 11 8 10 11 10 8 6 6 7 6 6 6
7 5 6 9 6 2 2 6 9 10 15 16 15 14 13 12 13 13 14 13 13 14 14 13 13 13 14 14 15 16 17 18 19 19 18 17 17 16 15 14 12 12 13 13 13 15 16 16 16 13 11 13 14 11 8 7 7 6 5 4 4 4 4
8 7 7 7 5 1 4 5 7 11 12 12 12 13 12 11 12 13 13 13 14 14 14 14 14 14 14 15 15 15 16 17 17 18 18 17 17 17 17 17 16 14 14 13 12 13 15 16 16 19 21 20 18 16 14 12 10 8 6 4 3 2 3
9 9 8 5 3 4 6 7 9 11 11 11 11 11 11 11 12 13 13 13 14 13 12 13 14 15 16 16 16 15 15 16 16 16 16 16 16 17 18 18 18 17 16 14 13 14 15 15 14 16 18 17 15 13 12 12 12 10 8 7 5 3 2
9 9 9 7 6 7 8 8 9 10 11 11 11 11 11 11 12 12 13 13 13 12 11 11 12 12 13 15 16 16 15 15 15 16 16 15 16 17 18 18 18 18 18 16 15 15 14 14 14 15 16 16 16 15 14 13 13 12 12 11 9 7 5
8 8 8 9 9 9 9 9 10 11 11 11 11 11 11 11 11 12 12 12 12 11 12 11 11 12 13 13 13 14 14 14 14 15 16 16 16 17 17 17 18 18 18 17 16 15 15 14 14 15 15 15 15 17 17 15 14 14 15 14 13 11 10
8 9 9 10 10 10 9 10 11 11 12 12 11 10 10 10 11 11 11 10 10 10 11 11 11 12 12 13 13 13 13 14 15 15 15 16 18 18 17 16 16 16 16 16 15 14 14 13 13 13 13 12 13 15 16 15 15 15 15 15 14 13 12
10 10 10 10 9 9 10 10 11 12 11 11 11 10 10 10 10 11 11 10 9 9 9 10 10 11 11 12 13 13 13 14 15 16 15 15 16 18 17 17 17 16 15 15 14 14 13 13 12 12 11 10 9 11 12 14 15 15 14 15 15 13 13
10 10 10 10 9 9 9 10 11 11 11 11 11 10 10 10 10 10 10 10 10 9 9 9 10 10 10 11 11 11 12 13 14 17 19 18 17 16 16 17 18 19 18 16 14 13 13 13 12 11 11 11 10 9 10 12 14 14 14 13 12 12 11
10 10 9 8 8 8 9 9 9 10 10 10 10 10 10 10 10 10 10 10 9 9 8 8 9 9 9 9 9 9 10 10 11 14 18 21 21 19 18 16 16 18 20 18 15 13 12 11 12 12 12 12 12 12 11 12 14 15 14 13 12 11 10
10 10 9 8 8 8 8 8 9 9 10 9 9 10 10 10 10 10 10 10 9 8 8 8 8 9 9 9 8 8 9 9 9 9 12 15 18 19 18 17 16 17 18 17 17 16 14 13 12 12 12 13 14 13 12 12 14 14 13 12 13 13 13
11 10 10 10 9 8 8 8 7 8 9 8 8 9 9 9 9 10 10 10 9 9 10 10 9 10 11 10 10 10 8 8 8 7 8 10 10 12 14 16 16 16 16 16 16 17 16 16 14 13 11 11 12 13 12 12 12 12 10 10 11 13 13
11 10 10 10 10 9 9 8 8 8 8 8 8 8 8 8 8 9 9 9 9 9 10 11 11 11 10 9 10 11 10 8 7 7 7 7 5 4 7 10 12 13 13 13 12 13 14 14 14 14 13 12 12 12 11 10 11 11 9 9 11 12 14
10 10 9 9 9 9 8 8 8 8 7 7 7 7 7 7 7 7 8 9 9 9 9 10 10 10 10 8 8 9 9 8 7 6 5 4 3 1 3 6 8 10 9 9 8 8 10 10 11 12 12 12 13 12 11 10 10 10 9 9 9 11 13

ECMWFFLT1_925_spd_141.txt.gz
Wind_Speed
6 5 4 4 4 2 0 5 9 3 16 24 22 22 23 24 26 26 27 28 27 27 25 24 26 25 25 24 21 22 20 18 22 20 19 23 22 19 20 19 18 17 18 20 19 18 18 17 16 17 17 15 14 14 14 13 13 14 13 12 11 10 10
2 1 1 2 3 1 3 5 12 13 5 19 20 23 24 24 26 26 27 28 26 26 25 24 26 25 25 24 22 22 21 18 20 20 18 20 20 19 19 20 19 18 18 19 19 18 17 17 17 17 18 17 15 15 15 15 15 14 14 13 12 12 12
4 3 3 2 2 1 4 6 10 15 10 6 16 22 22 24 25 23 24 27 26 27 25 22 24 24 24 24 22 21 21 19 19 19 18 18 18 18 19 19 19 19 19 19 18 18 18 18 17 17 18 18 17 16 15 16 16 15 13 12 11 12 12
6 5 4 4 3 3 6 9 11 12 13 9 10 18 18 21 20 15 15 15 16 21 23 23 23 23 23 24 22 21 21 20 19 19 19 18 17 17 18 18 18 19 19 20 19 19 19 19 18 17 16 17 18 17 16 15 15 14 13 13 13 12 11
7 6 5 4 4 5 6 9 11 10 13 13 8 11 12 15 17 16 15 11 9 12 14 15 18 21 22 23 22 21 20 21 19 18 18 18 17 18 18 18 20 20 20 20 19 18 20 20 20 20 17 17 18 17 16 17 16 14 13 14 14 14 13
4 4 5 4 3 4 4 7 11 12 12 13 9 9 10 10 14 17 16 13 12 13 15 12 9 12 16 19 20 19 19 20 20 18 18 17 18 19 19 19 19 20 21 20 19 18 19 19 21 23 21 19 19 17 16 17 17 16 15 15 15 15 15
3 3 4 4 3 3 3 6 12 14 12 12 11 8 6 6 10 15 15 13 11 13 21 21 13 11 11 13 16 17 18 19 19 19 18 17 18 19 20 19 19 19 20 19 19 19 19 18 19 21 21 20 21 20 18 18 17 17 17 17 16 16 15
3 4 4 6 6 5 5 6 9 13 13 14 15 11 7 5 8 13 13 12 12 13 19 19 16 16 15 13 14 14 17 19 19 19 18 17 15 14 15 15 16 18 18 18 19 20 19 19 18 18 20 21 21 20 18 18 19 19 19 18 18 18 17
3 5 6 5 6 6 7 9 7 10 13 15 19 19 13 8 7 10 12 12 12 13 15 14 13 14 14 15 14 11 11 15 17 18 19 18 14 12 12 11 10 12 13 14 16 18 20 21 21 19 19 20 21 20 19 18 19 21 22 20 20 20 20
5 6 6 5 5 6 5 6 6 8 11 13 17 20 18 14 11 8 5 6 10 12 15 15 14 13 12 14 15 12 8 10 15 18 20 21 18 15 13 12 11 10 12 13 11 13 15 18 21 23 23 21 20 20 20 19 19 21 23 23 21 20 20
7 7 7 7 7 7 5 3 5 9 11 12 13 16 18 17 14 12 12 7 2 8 12 13 13 13 12 12 14 14 11 11 14 16 17 19 19 18 15 13 11 10 12 14 15 16 15 14 16 19 22 24 24 22 21 20 18 18 21 23 22 20 18
7 6 6 7 8 7 6 5 8 11 12 11 10 11 15 15 13 11 8 9 8 4 5 7 9 12 11 10 11 13 13 13 14 14 13 14 16 17 15 12 11 10 11 12 14 15 14 13 16 17 18 19 23 25 23 22 20 18 16 18 20 19 18
6 5 5 5 6 7 7 7 9 12 12 10 7 6 7 9 10 10 8 7 8 5 5 4 5 9 9 7 8 11 12 13 12 13 12 12 12 13 13 12 13 13 13 13 11 8 7 11 15 17 17 17 20 23 23 22 22 21 19 18 17 17 17
6 6 6 6 6 7 7 7 8 11 13 12 10 9 8 5 4 3 4 3 2 4 7 6 4 5 5 4 5 8 9 9 8 10 10 10 10 11 13 14 14 14 14 16 16 12 9 11 13 16 17 15 19 22 21 19 19 20 21 20 19 17 17
6 6 6 6 6 6 6 6 6 9 13 14 13 13 11 8 3 2 5 6 3 4 6 7 6 6 5 3 3 4 5 5 5 7 8 8 8 10 12 14 14 14 15 16 18 18 15 12 12 17 20 17 16 20 21 20 19 18 18 18 18 18 17
5 5 6 6 6 6 5 6 7 9 12 13 13 13 12 10 6 1 4 4 1 1 2 4 5 6 6 5 3 3 2 2 2 3 5 5 6 7 9 11 13 13 13 13 15 16 14 10 9 13 16 16 13 15 20 21 20 18 18 17 17 18 17
4 4 5 5 5 5 5 5 7 9 10 11 12 11 10 10 10 6 1 2 2 2 3 2 3 2 3 4 4 3 4 3 2 1 2 3 4 5 6 7 9 11 11 11 11 11 10 7 6 7 10 11 10 9 14 18 18 17 18 18 17 18 17
4 4 4 5 5 4 4 5 6 8 10 11 11 10 9 10 11 10 5 3 5 5 3 4 3 2 2 1 2 3 4 3 1 0 1 2 2 3 5 6 7 8 9 9 9 8 8 6 4 4 6 8 10 10 12 15 15 14 16 17 17 17 15
4 4 4 4 4 4 4 4 6 8 9 10 9 8 8 11 12 12 11 9 9 8 9 11 11 7 2 1 3 2 2 3 2 1 2 3 2 2 3 4 5 6 6 7 8 9 8 6 4 5 6 6 7 8 8 10 10 10 12 14 15 15 13
5 4 2 2 3 4 5 5 6 9 10 11 11 10 10 12 14 14 14 14 13 13 13 14 15 14 11 8 4 3 3 3 1 2 2 3 2 2 2 3 3 3 3 5 6 7 7 7 6 7 7 5 4 4 5 7 8 8 9 11 12 13 12
5 5 2 2 2 4 5 5 6 8 11 12 13 14 15 14 15 17 17 17 17 16 16 16 17 17 17 15 12 10 8 5 4 4 2 2 1 1 1 1 1 3 3 3 4 5 5 6 6 6 5 5 5 7 8 8 8 9 10 11 12 12 12
5 4 2 1 1 4 6 6 7 8 11 12 12 15 16 15 16 17 18 19 19 18 17 17 18 19 19 18 16 15 13 11 9 8 6 5 6 7 7 6 5 6 6 6 6 6 6 6 7 6 6 6 7 9 10 9 9 10 11 12 12 12 12
5 4 3 2 3 4 6 7 7 9 12 13 12 13 15 16 19 20 19 20 21 20 20 20 19 19 20 20 20 17 16 15 14 13 12 12 13 13 12 11 12 11 10 11 11 10 9 8 7 6 6 7 8 9 9 9 9 10 10 10 11 11 11
6 5 5 5 4 4 5 7 10 11 11 13 13 13 13 15 17 19 19 19 20 21 21 21 21 20 20 21 21 20 18 17 17 17 16 16 16 15 14 15 16 15 15 17 17 17 16 13 10 6 2 1 1 2 5 4 4 6 8 9 10 9 10
6 5 4 4 5 4 3 5 10 11 10 12 14 14 14 15 17 18 18 18 19 21 21 20 19 20 19 19 20 19 18 17 17 17 18 19 19 18 17 16 16 17 18 20 20 21 20 19 18 16 13 13 13 9 5 4 5 3 3 5 7 7 8
8 6 4 3 3 4 2 4 9 9 7 10 14 14 15 16 17 17 17 17 19 21 20 19 19 17 16 17 18 18 16 16 17 18 19 20 21 21 20 18 18 18 19 19 19 20 21 20 21 21 20 18 16 14 11 9 9 9 9 5 2 4 6
10 7 4 3 2 4 3 4 8 10 6 8 14 16 16 17 18 17 17 18 19 19 18 19 20 19 18 17 16 15 15 16 18 19 20 21 21 22 22 20 20 19 18 19 19 20 20 20 19 20 21 20 20 18 16 15 14 13 14 12 9 6 5
11 9 7 4 5 8 8 7 11 13 10 10 15 17 17 19 19 19 19 19 19 17 15 16 17 18 19 18 16 15 15 16 17 18 19 20 21 22 22 21 21 20 19 19 20 20 21 20 20 21 21 22 21 20 18 18 18 17 17 17 15 11 11
11 9 8 6 8 12 12 12 14 15 12 13 16 17 17 18 18 18 19 19 17 16 15 15 14 14 15 16 17 17 17 18 19 19 19 18 19 20 21 20 20 20 20 20 21 21 21 20 20 22 22 21 20 19 18 18 18 18 18 18 17 15 15
11 9 9 10 12 14 13 13 15 15 14 14 15 14 14 16 16 16 17 17 15 14 14 14 14 14 14 15 17 17 17 18 19 20 21 20 19 19 20 19 19 19 19 19 19 19 19 18 18 19 19 19 19 19 18 17 17 17 16 15 14 15 16
12 13 13 14 14 14 14 14 14 14 14 13 13 13 14 15 15 14 13 13 13 13 13 12 13 15 16 17 17 17 16 16 16 17 19 21 21 19 18 17 18 19 19 18 18 18 17 17 16 16 16 15 16 17 17 16 15 14 14 13 13 13 13
13 13 14 14 15 15 15 15 15 14 14 13 12 13 14 15 16 15 12 11 10 11 11 11 12 12 13 15 16 17 18 19 18 17 18 19 21 21 19 17 17 17 17 17 17 17 16 15 15 15 14 14 13 14 15 16 16 15 14 13 13 12 12
12 13 14 14 14 15 16 16 16 15 16 15 14 14 13 13 14 14 12 11 10 10 9 10 11 12 12 12 13 15 17 20 20 20 20 19 19 20 21 20 19 18 17 16 16 16 16 16 16 16 15 15 13 13 14 16 16 16 16 16 15 14 14
12 13 14 15 16 16 15 15 15 15 16 16 15 15 14 13 12 11 10 9 9 10 10 10 11 13 13 12 11 11 13 15 16 17 18 18 18 19 19 20 21 21 20 18 17 17 16 16 16 16 15 15 14 14 15 17 17 17 17 17 17 17 16
13 15 16 16 17 17 16 15 14 14 15 14 14 14 14 13 12 11 10 9 9 11 13 12 12 13 14 15 13 11 11 10 11 12 13 14 15 16 17 17 18 19 19 18 18 17 17 17 16 15 15 15 15 15 16 16 16 16 16 17 18 18 18
15 15 15 15 16 15 15 15 14 14 14 13 12 13 12 12 12 11 10 10 10 12 14 15 14 13 14 15 15 13 11 10 8 8 8 9 9 11 13 13 14 15 15 15 15 15 15 15 15 14 14 15 14 14 14 15 14 13 14 16 17 17 18
15 15 15 15 14 14 15 15 14 14 13 13 12 12 11 12 12 11 11 10 10 12 14 14 13 12 11 11 13 13 12 11 10 8 7 6 4 5 7 9 9 10 11 11 12 12 12 13 14 14 14 14 14 13 12 12 13 12 13 15 16 16 17
17 17 16 15 15 14 14 14 13 13 13 13 12 12 11 11 10 10 10 10 10 11 11 11 10 10 8 7 9 11 12 12 12 12 11 9 6 3 2 3 4 5 7 7 8 9 9 10 11 13 14 14 13 13 12 11 12 12 13 14 13 12 15

ECMWFFLT1_925_spd_144.txt.gz
Wind_Speed
4 4 5 2 1 3 3 2 5 3 16 23 23 22 22 29 32 31 32 33 32 31 30 30 30 29 27 25 25 25 23 20 19 21 20 20 20 19 19 19 22 23 22 21 22 21 19 18 18 18 18 17 16 16 15 14 14 14 13 13 12 12 11
3 3 2 4 1 2 1 1 5 6 9 23 27 27 26 28 32 32 32 32 32 31 30 30 30 29 28 27 25 26 25 21 20 22 21 20 20 19 18 20 21 20 20 19 20 21 19 19 19 19 19 18 17 17 17 16 15 16 15 15 15 14 13
1 3 3 1 2 4 2 2 1 5 1 17 27 28 28 30 32 33 32 31 31 29 28 29 29 29 28 27 26 26 26 23 21 22 23 21 21 22 21 20 21 20 19 18 19 21 21 20 20 21 21 20 19 17 18 18 17 17 18 17 17 17 16
4 4 1 1 1 3 2 2 2 5 5 8 22 26 27 29 30 30 32 33 33 30 28 29 29 28 27 28 27 26 26 25 22 22 22 21 21 23 23 21 21 21 21 21 19 20 21 22 22 21 21 22 22 20 20 19 18 18 18 18 18 17 17
3 4 3 2 4 4 3 7 10 14 15 6 13 23 26 27 27 28 31 33 33 31 29 29 30 29 28 28 29 27 27 27 25 22 22 20 20 22 22 22 21 21 21 22 21 21 21 22 23 23 23 23 22 22 22 21 19 18 18 17 17 17 17
4 4 4 4 4 5 4 8 11 13 18 17 4 13 24 27 27 30 33 34 34 31 27 26 30 32 31 30 29 27 26 27 27 25 24 23 21 22 22 21 21 21 20 21 22 23 23 22 22 23 24 24 22 21 22 22 21 20 19 18 17 17 17
5 4 4 4 4 5 5 7 10 9 8 13 13 4 11 19 23 27 28 27 27 28 28 28 30 31 31 32 31 28 26 27 27 26 25 25 23 24 24 23 23 23 22 21 22 23 24 24 23 23 24 25 25 23 21 21 22 22 21 21 19 17 17
6 5 4 4 4 4 4 5 7 9 10 7 6 9 6 10 17 20 20 17 14 17 21 23 27 31 30 30 31 30 27 26 26 26 25 25 24 24 25 25 25 25 24 24 25 25 25 25 24 23 23 24 26 26 24 22 22 22 21 22 21 20 20
6 6 6 5 4 2 2 4 6 7 10 11 8 5 6 6 11 15 20 22 20 20 19 16 17 24 28 28 29 29 28 26 26 27 26 25 25 25 25 26 27 26 25 23 23 25 26 26 24 23 22 22 24 26 26 25 24 23 23 22 23 23 23
6 6 6 5 5 2 3 4 6 7 8 11 11 8 7 8 8 8 12 18 20 22 22 19 16 18 22 26 28 27 26 26 26 28 29 28 27 26 24 23 24 25 24 21 20 21 22 22 23 21 20 21 23 25 26 26 25 24 24 24 25 25 26
4 5 6 6 5 4 3 3 5 6 7 9 12 13 11 9 7 8 7 9 11 14 17 18 19 18 18 21 25 26 24 23 24 26 30 31 30 28 25 22 21 22 22 21 19 20 20 19 20 20 19 20 22 25 26 26 25 25 25 25 27 28 29
4 4 6 6 6 5 4 4 4 5 6 8 10 11 10 9 8 8 8 8 8 9 11 14 18 20 17 19 22 24 22 20 21 24 28 30 30 29 27 24 21 19 19 20 20 21 21 20 20 21 19 19 20 22 23 23 24 25 24 23 23 26 30
4 4 4 5 5 5 5 4 4 4 7 8 9 9 10 10 9 9 8 8 8 8 10 13 17 20 20 17 19 20 20 18 18 21 24 26 26 26 26 24 22 19 17 17 18 18 20 21 22 23 22 21 21 22 23 22 23 24 24 23 20 21 26
4 4 4 4 5 5 5 5 5 6 6 6 9 10 10 8 7 8 9 9 9 9 9 11 13 15 16 15 15 14 14 13 13 14 17 18 19 19 20 21 21 19 16 15 16 17 18 18 19 20 22 22 21 23 25 26 26 26 28 28 26 21 22
4 4 4 4 4 4 4 4 4 6 8 5 3 4 5 5 5 7 8 8 7 7 6 9 11 12 13 12 11 8 4 4 6 7 9 9 10 11 13 16 17 16 15 14 15 17 18 17 15 15 16 18 20 22 25 26 28 29 29 30 29 25 21
4 4 4 4 4 4 3 3 4 6 7 8 7 5 4 3 5 7 7 6 5 4 4 5 7 9 11 12 11 8 6 5 3 4 5 5 5 5 6 9 11 12 13 14 14 16 17 17 15 13 13 15 18 22 24 25 26 27 27 27 26 24 22
3 3 4 4 4 4 4 3 5 7 7 8 8 8 8 7 6 5 3 3 4 4 3 3 5 7 8 9 9 10 10 9 5 3 4 4 3 3 3 4 5 7 8 10 10 11 13 13 12 11 11 12 15 18 20 21 22 22 24 25 25 23 21
3 3 3 3 3 4 4 3 5 6 7 7 8 9 9 10 11 10 7 6 5 3 3 3 5 7 8 7 7 8 8 8 6 4 3 1 1 3 3 3 3 4 5 6 6 8 8 8 8 8 8 9 12 14 14 14 16 17 20 22 24 25 24
2 2 3 4 4 3 3 4 6 8 8 9 10 12 13 14 15 14 13 12 10 8 6 5 5 6 6 5 6 7 6 5 5 6 5 3 2 2 2 2 2 3 4 4 5 7 7 8 7 7 7 8 9 8 9 10 13 15 18 20 22 24 25
0 2 4 4 4 4 4 6 9 10 12 13 13 16 18 18 18 17 16 16 15 14 12 11 10 8 6 6 7 9 8 7 8 8 6 4 4 4 3 1 1 2 2 3 4 4 5 7 7 7 9 10 8 8 8 9 10 12 15 18 20 21 22
2 0 3 4 4 5 6 7 10 11 13 14 15 18 20 19 18 19 18 17 17 17 16 15 13 11 9 9 9 9 9 9 9 6 4 4 5 6 5 4 1 1 1 2 3 3 3 4 5 6 8 7 7 8 9 10 10 10 11 14 16 18 19
3 1 2 3 4 7 7 7 10 12 12 13 16 18 19 18 17 18 19 18 17 17 17 16 16 14 12 12 12 12 12 11 10 8 6 6 7 8 8 7 5 4 4 4 4 4 3 3 3 5 6 5 4 4 7 9 10 11 12 13 14 16 17
4 3 3 4 6 8 8 7 10 13 13 14 17 18 17 18 18 19 20 19 18 18 18 18 17 15 14 14 14 15 15 15 15 14 12 12 13 14 13 11 10 9 8 7 7 7 6 6 5 4 4 3 1 1 3 5 7 10 12 13 14 15 16
6 6 5 5 6 8 8 9 10 13 14 14 15 14 15 17 18 19 18 17 18 19 19 19 18 16 16 15 16 17 18 18 19 18 16 16 16 17 16 15 14 13 12 13 13 13 12 11 11 11 9 8 7 5 2 3 5 7 10 12 15 15 14
6 7 6 6 7 8 9 9 8 10 13 15 12 11 13 16 17 17 16 14 15 17 18 18 17 17 17 16 17 18 19 20 20 20 19 18 18 19 18 16 15 15 15 16 17 17 17 16 16 16 14 12 12 9 7 7 7 7 6 7 8 10 10
6 8 6 5 6 7 8 7 7 9 14 15 11 8 10 11 13 15 15 14 15 17 17 17 17 16 17 17 18 19 19 20 21 21 20 20 19 19 17 15 15 15 15 16 17 18 19 19 19 19 18 16 14 14 13 12 11 11 9 8 7 4 3
9 9 6 5 6 8 8 8 9 11 14 16 13 10 9 9 9 11 13 14 16 17 18 18 18 17 17 17 17 18 18 19 20 21 21 20 19 18 16 15 15 15 15 17 17 18 19 20 20 20 20 18 17 16 16 14 14 14 12 10 10 9 8
10 8 9 10 11 12 12 12 13 13 15 15 14 11 10 10 10 12 15 15 15 17 19 21 20 20 19 19 18 18 18 18 19 20 21 20 20 20 18 17 17 17 17 18 19 20 21 21 21 21 20 19 18 17 16 15 14 14 14 13 13 13 12
11 10 13 15 15 15 16 14 13 14 15 15 14 11 10 9 10 13 17 17 16 16 17 19 19 19 19 20 20 21 21 20 19 19 20 20 21 21 20 19 18 19 19 20 20 21 21 20 20 20 20 19 18 16 15 14 14 13 14 15 15 16 15
11 12 15 17 17 18 18 16 14 14 14 14 15 15 13 9 10 13 15 16 16 17 18 18 18 18 17 17 18 20 22 22 21 19 19 19 19 20 21 20 20 20 19 19 20 20 19 18 18 18 18 18 18 16 15 13 13 12 12 13 14 14 14
11 14 17 18 18 18 18 18 17 15 12 11 13 14 12 9 9 12 13 13 14 16 17 18 20 21 21 20 20 21 22 22 22 20 19 17 17 18 19 19 19 20 18 18 18 17 16 16 15 16 16 16 16 16 15 14 13 13 12 12 13 12 12
12 16 18 18 17 17 17 16 16 14 12 12 13 13 13 12 12 13 14 13 12 13 15 16 19 22 23 23 24 24 23 23 22 21 20 19 17 17 17 17 17 18 18 17 18 17 16 15 15 15 15 15 14 14 14 15 15 15 14 14 14 14 13
13 16 18 18 17 18 17 15 14 13 12 12 12 13 14 14 14 14 14 14 14 15 15 15 17 19 21 22 22 21 21 22 21 20 21 21 20 19 18 17 17 18 19 18 18 18 17 16 15 15 15 15 14 14 15 16 17 17 17 17 17 18 17
14 16 17 18 19 19 18 17 16 15 15 14 13 12 12 12 13 13 13 14 16 17 19 18 17 16 16 17 17 18 18 18 18 18 18 19 19 20 20 19 18 18 18 17 16 16 15 15 15 14 14 14 14 15 16 18 19 19 19 19 19 19 20
15 17 18 19 19 18 18 17 17 17 16 15 13 13 13 13 13 13 14 15 16 17 19 21 20 18 15 13 12 13 14 14 14 15 15 15 16 16 17 17 17 17 16 15 14 14 14 14 13 13 13 13 14 15 16 17 18 18 18 18 19 19 18
17 18 19 18 17 16 16 16 16 16 16 14 13 13 14 14 14 14 15 16 16 15 17 18 19 20 18 15 12 11 10 10 10 10 10 10 11 12 12 13 14 14 13 13 13 13 13 12 12 11 12 12 13 14 15 15 15 15 15 16 18 18 18
20 19 19 20 19 17 16 15 14 15 14 13 12 13 13 13 13 13 13 14 14 15 16 15 16 17 17 17 17 15 13 12 10 8 7 6 6 6 7 8 9 10 11 11 11 11 11 11 10 10 10 11 12 13 14 14 13 12 13 16 17 17 18
22 21 20 20 19 18 17 16 14 14 13 12 12 12 12 12 12 11 12 13 14 15 15 14 13 13 14 15 15 14 14 13 12 11 9 7 5 3 3 3 4 5 6 7 8 9 10 10 9 9 10 12 13 13 13 13 12 11 14 16 17 17 17